K4SOF Weather Reports


time (UTC)temp
C
wind
direction
speed
KPH
gust
KPH
rain 1hr
cm
rain 24hr
cm
rain mn
cm
humidity
%
barometer
mb
20260504234705 22 237 0.0 0.0 0.00 0.00 0.00 52 1014.6
20260504234205 22 233 0.0 0.0 0.00 0.00 0.00 51 1014.7
20260504233705 22 240 0.0 3.2 0.00 0.00 0.00 50 1014.8
20260504233205 23 231 0.0 0.0 0.00 0.00 0.00 51 1014.6
20260504232705 23 221 0.0 3.2 0.00 0.00 0.00 48 1014.7
20260504231705 24 245 0.0 0.0 0.00 0.00 0.00 47 1014.4
20260504231205 24 260 1.6 3.2 0.00 0.00 0.00 41 1014.6
20260504230909 24 247 0.0 3.2 0.00 0.00 0.00 43 1014.6
20260504230135 25 248 0.0 1.6 0.00 0.00 0.00 41 1014.4
20260504225635 25 262 3.2 6.4 0.00 0.00 0.00 38 1014.7
20260504225135 25 248 0.0 1.6 0.00 0.00 0.00 44 1014.8
20260504224840 25 247 0.0 1.6 0.00 0.00 0.00 49 1014.8
20260504224120 25 223 3.2 11.3 0.00 0.00 0.00 40 1014.6
20260504223620 25 245 1.6 3.2 0.00 0.00 0.00 40 1014.6
20260504223120 26 235 3.2 4.8 0.00 0.00 0.00 41 1014.8
20260504222620 25 252 1.6 3.2 0.00 0.00 0.00 42 1014.7
20260504222120 25 253 1.6 9.7 0.00 0.00 0.00 41 1014.8
20260504221620 25 248 0.0 3.2 0.00 0.00 0.00 44 1014.8
20260504221119 25 233 3.2 4.8 0.00 0.00 0.00 38 1015.0
20260504220619 25 226 0.0 1.6 0.00 0.00 0.00 45 1015.0
20260504220105 25 315 3.2 3.2 0.00 0.00 0.00 38 1014.8
20260504215605 26 238 1.6 3.2 0.00 0.00 0.00 43 1014.8
20260504215552 26 259 3.2 4.8 0.00 0.00 0.00 37 1014.9
20260504214824 26 282 1.6 3.2 0.00 0.00 0.00 44 1014.9
20260504214105 26 250 0.0 4.8 0.00 0.00 0.00 45 1015.0
20260504213605 26 309 1.6 4.8 0.00 0.00 0.00 43 1015.1
20260504213105 26 265 3.2 3.2 0.00 0.00 0.00 38 1015.0
20260504212605 26 256 3.2 6.4 0.00 0.00 0.00 38 1014.9
20260504212105 26 270 3.2 11.3 0.00 0.00 0.00 39 1015.0
20260504211605 26 215 3.2 4.8 0.00 0.00 0.00 39 1014.9
20260504211050 26 211 1.6 4.8 0.00 0.00 0.00 40 1015.0
20260504210550 25 263 1.6 4.8 0.00 0.00 0.00 40 1015.1
20260504210035 26 210 3.2 6.4 0.00 0.00 0.00 40 1015.1
20260504205757 26 214 4.8 11.3 0.00 0.00 0.00 41 1015.0
20260504205254 26 242 0.0 1.6 0.00 0.00 0.00 45 1015.1
20260504204755 26 248 0.0 3.2 0.00 0.00 0.00 38 1014.9
20260504204035 26 248 1.6 6.4 0.00 0.00 0.00 42 1015.3
20260504203535 26 253 1.6 3.2 0.00 0.00 0.00 39 1015.0
20260504203035 26 200 3.2 9.7 0.00 0.00 0.00 38 1015.2
20260504202535 26 202 3.2 11.3 0.00 0.00 0.00 38 1015.2
20260504202035 26 240 1.6 3.2 0.00 0.00 0.00 38 1015.1
20260504201535 26 27 3.2 3.2 0.00 0.00 0.00 37 1015.3
20260504201035 26 233 0.0 4.8 0.00 0.00 0.00 37 1015.1
20260504200520 26 251 1.6 3.2 0.00 0.00 0.00 45 1015.5
20260504200005 26 237 1.6 3.2 0.00 0.00 0.00 40 1015.7
20260504195450 25 267 1.6 3.2 0.00 0.00 0.00 44 1015.7
20260504194950 26 259 1.6 3.2 0.00 0.00 0.00 40 1015.6
20260504194450 25 249 1.6 3.2 0.00 0.00 0.00 44 1015.7
20260504194154 25 243 3.2 11.3 0.00 0.00 0.00 44 1015.9
20260504193655 25 220 1.6 3.2 0.00 0.00 0.00 42 1016.1
20260504193156 25 244 1.6 1.6 0.00 0.00 0.00 45 1016.1
20260504192435 25 248 0.0 3.2 0.00 0.00 0.00 44 1016.1
20260504191934 25 212 0.0 3.2 0.00 0.00 0.00 47 1016.3
20260504191655 25 252 3.2 4.8 0.00 0.00 0.00 44 1016.4
20260504190934 25 225 1.6 1.6 0.00 0.00 0.00 43 1016.3
20260504190434 24 257 0.0 3.2 0.00 0.00 0.00 42 1016.5
20260504185920 25 243 0.0 4.8 0.00 0.00 0.00 54 1016.6
20260504185420 26 256 1.6 9.7 0.00 0.00 0.00 46 1016.4
20260504184920 25 246 4.8 6.4 0.00 0.00 0.00 41 1016.6
20260504184420 25 201 3.2 6.4 0.00 0.00 0.00 45 1016.8
20260504184141 25 223 4.8 6.4 0.00 0.00 0.00 43 1016.7
20260504183419 25 256 0.0 1.6 0.00 0.00 0.00 47 1016.7
20260504183139 24 230 1.6 3.2 0.00 0.00 0.00 45 1017.1
20260504182419 25 283 1.6 3.2 0.00 0.00 0.00 47 1017.1
20260504181919 24 106 3.2 4.8 0.00 0.00 0.00 46 1016.8
20260504181419 25 252 0.0 3.2 0.00 0.00 0.00 49 1017.0
20260504180919 25 241 1.6 1.6 0.00 0.00 0.00 47 1017.1
20260504180419 24 272 1.6 9.7 0.00 0.00 0.00 45 1017.2
20260504175904 24 225 0.0 3.2 0.00 0.00 0.00 52 1017.5
20260504175625 23 228 4.8 6.4 0.00 0.00 0.00 46 1017.4
20260504174904 24 247 3.2 6.4 0.00 0.00 0.00 43 1017.2
20260504174404 23 228 0.0 1.6 0.00 0.00 0.00 45 1017.3
20260504173904 23 197 6.4 9.7 0.00 0.00 0.00 45 1017.7
20260504173404 23 254 3.2 9.7 0.00 0.00 0.00 46 1017.7
20260504172904 24 237 3.2 4.8 0.00 0.00 0.00 45 1017.7
20260504172404 24 257 0.0 3.2 0.00 0.00 0.00 44 1017.6
20260504171849 24 237 1.6 3.2 0.00 0.00 0.00 53 1017.7
20260504171349 24 237 1.6 4.8 0.00 0.00 0.00 43 1017.9
20260504171110 23 277 1.6 3.2 0.00 0.00 0.00 48 1018.1
20260504170349 23 258 1.6 3.2 0.00 0.00 0.00 49 1018.1
20260504160318 22 191 1.6 4.8 0.00 0.00 0.00 50 1019.1
20260504150748 20 277 4.8 4.8 0.00 0.00 0.00 54 1019.2
20260504150233 20 233 4.8 6.4 0.00 0.00 0.00 54 1019.3
20260504141218 17 226 1.6 3.2 0.00 0.00 0.00 66 1019.8
20260504140718 17 199 1.6 4.8 0.00 0.00 0.00 66 1019.9
20260504140203 16 231 1.6 3.2 0.00 0.00 0.00 67 1020.1
20260504130633 13 203 0.0 1.6 0.00 0.00 0.00 79 1020.4
20260504130118 12 203 0.0 1.6 0.00 0.00 0.00 79 1020.4
20260504110547 6 222 0.0 0.0 0.00 0.00 0.00 99 1020.4
20260504100532 7 222 0.0 0.0 0.00 0.00 0.00 99 1020.4
20260504100239 7 222 0.0 0.0 0.00 0.00 0.00 99 1020.4
20260504081447 7 233 0.0 0.0 0.00 0.00 0.00 99 1020.0
20260504080947 7 233 0.0 0.0 0.00 0.00 0.00 99 1020.2
20260504080447 7 233 0.0 0.0 0.00 0.00 0.00 99 1020.1
20260504050317 9 234 0.0 0.0 0.00 0.00 0.00 96 1021.1
20260504045803 9 234 0.0 0.0 0.00 0.00 0.00 95 1021.0
20260504045304 9 234 0.0 0.0 0.00 0.00 0.00 94 1021.3
20260504045024 8 233 0.0 0.0 0.00 0.00 0.00 93 1021.3
20260504044303 9 233 0.0 0.0 0.00 0.00 0.00 94 1021.2
20260504043803 9 234 0.0 0.0 0.00 0.00 0.00 94 1021.2
20260504043303 9 233 0.0 0.0 0.00 0.00 0.00 95 1021.2
20260504042803 9 233 0.0 0.0 0.00 0.00 0.00 95 1021.3
20260504042248 9 234 0.0 0.0 0.00 0.00 0.00 95 1021.2
20260504042010 9 233 0.0 0.0 0.00 0.00 0.00 95 1021.4
20260504041507 9 234 0.0 0.0 0.00 0.00 0.00 96 1021.2
20260504041007 9 234 0.0 0.0 0.00 0.00 0.00 96 1021.2
20260504040233 9 234 0.0 0.0 0.00 0.00 0.00 95 1021.4
20260504035733 9 233 0.0 0.0 0.00 0.00 0.00 95 1021.6
20260504035233 9 233 0.0 0.0 0.00 0.00 0.00 95 1021.4
20260504034733 9 234 0.0 0.0 0.00 0.00 0.00 94 1021.5
20260504034233 9 234 0.0 0.0 0.00 0.00 0.00 93 1021.9
20260504033733 9 233 0.0 0.0 0.00 0.00 0.00 93 1021.9
20260504033233 9 233 0.0 0.0 0.00 0.00 0.00 94 1021.9
20260504032732 9 234 0.0 0.0 0.00 0.00 0.00 94 1021.9
20260504032232 9 234 0.0 0.0 0.00 0.00 0.00 93 1021.8
20260504031733 9 234 0.0 0.0 0.00 0.00 0.00 93 1022.0
20260504031232 9 234 0.0 0.0 0.00 0.00 0.00 93 1021.8
20260504030732 9 234 0.0 0.0 0.00 0.00 0.00 92 1021.6
20260504030218 10 234 0.0 0.0 0.00 0.00 0.00 92 1021.6
20260504025718 10 234 0.0 0.0 0.00 0.00 0.00 92 1021.6
20260504025218 10 234 0.0 0.0 0.00 0.00 0.00 92 1021.5
20260504024938 10 234 0.0 0.0 0.00 0.00 0.00 92 1021.5
20260504024218 10 233 0.0 0.0 0.00 0.00 0.00 91 1021.5
20260504023936 10 234 0.0 0.0 0.00 0.00 0.00 91 1021.4
20260504023217 10 234 0.0 0.0 0.00 0.00 0.00 91 1021.4
20260504022718 10 234 0.0 0.0 0.00 0.00 0.00 90 1021.3
20260504022218 10 234 0.0 0.0 0.00 0.00 0.00 89 1021.1
20260504021717 10 234 0.0 0.0 0.00 0.00 0.00 88 1021.0
20260504021437 10 233 0.0 0.0 0.00 0.00 0.00 88 1020.9
20260504020717 10 234 0.0 0.0 0.00 0.00 0.00 88 1021.2
20260504020203 10 234 0.0 0.0 0.00 0.00 0.00 87 1020.9
20260504015703 10 234 0.0 0.0 0.00 0.00 0.00 86 1021.0
20260504015203 10 234 0.0 0.0 0.00 0.00 0.00 87 1021.0
20260504014703 11 234 0.0 0.0 0.00 0.00 0.00 86 1021.3
20260504014203 11 234 0.0 0.0 0.00 0.00 0.00 86 1021.0
20260504013924 11 234 0.0 0.0 0.00 0.00 0.00 85 1020.8
20260504013202 11 234 0.0 0.0 0.00 0.00 0.00 84 1020.8
20260504012702 11 234 0.0 0.0 0.00 0.00 0.00 84 1020.7
20260504012202 11 233 0.0 0.0 0.00 0.00 0.00 84 1020.7
20260504011702 11 234 0.0 0.0 0.00 0.00 0.00 81 1020.6
20260504011202 11 234 0.0 0.0 0.00 0.00 0.00 82 1020.7
20260504010132 11 234 0.0 0.0 0.00 0.00 0.00 82 1020.5
20260504010120 12 234 0.0 0.0 0.00 0.00 0.00 79 1020.3
20260504005132 12 234 0.0 0.0 0.00 0.00 0.00 78 1020.3
20260504004632 12 234 0.0 0.0 0.00 0.00 0.00 78 1020.4
20260504004132 12 234 0.0 0.0 0.00 0.00 0.00 79 1020.2
20260504003632 13 234 0.0 0.0 0.00 0.00 0.00 76 1020.2
20260504003132 13 234 0.0 0.0 0.00 0.00 0.00 76 1020.1
20260504002632 13 234 0.0 0.0 0.00 0.00 0.00 73 1020.0
20260504002132 14 234 0.0 0.0 0.00 0.00 0.00 73 1020.1
20260504001632 14 236 0.0 0.0 0.00 0.00 0.00 69 1020.0
20260504001351 15 255 0.0 0.0 0.00 0.00 0.00 70 1019.8
20260504000852 15 234 0.0 0.0 0.00 0.00 0.00 70 1019.8
20260504000117 16 235 0.0 0.0 0.00 0.00 0.00 70 1019.7
20260503235617 16 246 0.0 1.6 0.00 0.00 0.00 65 1019.6
20260503235117 17 245 0.0 0.0 0.00 0.00 0.00 65 1019.7